When you browse on this site, cookies collect data to enhance your experience and personalize the content and advertising you see.
Visit our Privacy Policy to learn more. By continuing to use the site, you agree to this use of cookies and data.
  • In France
  • List of Countries
  • For 7 days
  • Water Temperature
  • Satellite Maps
  • Weather Map
  • Weather Widgets
  • user-avatar
    Login

    Hourly Weather Sylhet

    Today, 17 November, Saturday

    Time Temperature Precipitation Wind Pressure Humidity
    00:00 +21°C° 0 mm 1 mps 759 mmHg 73%
    01:00 +21°C° 0 mm 1 mps 758 mmHg 74%
    02:00 +20°C° 0 mm 2 mps 758 mmHg 76%
    03:00 +19°C° 0 mm 2 mps 758 mmHg 77%
    04:00 +19°C° 0 mm 2 mps 758 mmHg 78%
    05:00 +19°C° 0 mm 2 mps 759 mmHg 80%
    06:00 +21°C° 0 mm 1 mps 758 mmHg 81%
    07:00 +20°C° 0 mm 2 mps 758 mmHg 78%
    08:00 +21°C° 0 mm 2 mps 758 mmHg 75%
    09:00 +23°C° 0 mm 2 mps 758 mmHg 73%
    10:00 +25°C° 0 mm 2 mps 758 mmHg 67%
    11:00 +27°C° 0 mm 2 mps 758 mmHg 61%
    12:00 +29°C° 0 mm 3 mps 757 mmHg 56%
    13:00 +29°C° 0 mm 2 mps 757 mmHg 55%
    14:00 +30°C° 0 mm 1 mps 756 mmHg 53%
    15:00 +30°C° 0 mm 1 mps 756 mmHg 52%
    16:00 +28°C° 0 mm 1 mps 756 mmHg 58%
    17:00 +26°C° 0 mm 1 mps 757 mmHg 64%
    18:00 +24°C° 0 mm 2 mps 757 mmHg 70%
    19:00 +24°C° 0 mm 2 mps 758 mmHg 71%
    20:00 +23°C° 0 mm 2 mps 758 mmHg 71%
    21:00 +21°C° 0 mm 2 mps 759 mmHg 72%
    22:00 +21°C° 0 mm 2 mps 759 mmHg 73%
    23:00 +21°C° 0 mm 2 mps 759 mmHg 73%

    Tomorrow, 18 November, Sunday

    Time Temperature Precipitation Wind Pressure Humidity
    00:00 +21°C° 0 mm 1 mps 759 mmHg 73%
    01:00 +20°C° 0 mm 2 mps 759 mmHg 74%
    02:00 +20°C° 0 mm 2 mps 759 mmHg 75%
    03:00 +19°C° 0 mm 2 mps 759 mmHg 75%
    04:00 +19°C° 0 mm 2 mps 759 mmHg 76%
    05:00 +19°C° 0 mm 2 mps 759 mmHg 77%
    06:00 +18°C° 0 mm 2 mps 760 mmHg 78%
    07:00 +20°C° 0 mm 2 mps 760 mmHg 72%
    08:00 +23°C° 0 mm 2 mps 761 mmHg 66%
    09:00 +25°C° 0 mm 2 mps 761 mmHg 60%
    10:00 +27°C° 0 mm 2 mps 761 mmHg 54%
    11:00 +28°C° 0 mm 2 mps 760 mmHg 48%
    12:00 +30°C° 0 mm 2 mps 760 mmHg 42%
    13:00 +30°C° 0 mm 1 mps 759 mmHg 41%
    14:00 +30°C° 0 mm 1 mps 758 mmHg 39%
    15:00 +31°C° 0 mm 1 mps 758 mmHg 38%
    16:00 +28°C° 0 mm 1 mps 758 mmHg 43%
    17:00 +26°C° 0 mm 1 mps 758 mmHg 48%
    18:00 +24°C° 0 mm 1 mps 758 mmHg 53%
    19:00 +24°C° 0 mm 1 mps 759 mmHg 54%
    20:00 +23°C° 0 mm 1 mps 759 mmHg 55%
    21:00 +22°C° 0 mm 1 mps 760 mmHg 56%
    22:00 +22°C° 0 mm 1 mps 760 mmHg 58%
    23:00 +21°C° 0 mm 1 mps 760 mmHg 59%

    Day after tomorrow, 19 November, Monday

    Time Temperature Precipitation Wind Pressure Humidity
    00:00 +20°C° 0 mm 1 mps 760 mmHg 60%
    01:00 +19°C° 0 mm 2 mps 760 mmHg 63%
    02:00 +18°C° 0 mm 2 mps 760 mmHg 65%
    03:00 +18°C° 0 mm 2 mps 760 mmHg 67%
    04:00 +18°C° 0 mm 2 mps 760 mmHg 70%
    05:00 +17°C° 0 mm 2 mps 760 mmHg 73%
    06:00 +17°C° 0 mm 2 mps 760 mmHg 76%
    07:00 +19°C° 0 mm 2 mps 761 mmHg 71%
    08:00 +21°C° 0 mm 2 mps 761 mmHg 66%
    09:00 +24°C° 0 mm 2 mps 762 mmHg 62%
    10:00 +26°C° 0 mm 2 mps 761 mmHg 54%
    11:00 +28°C° 0 mm 2 mps 761 mmHg 47%
    12:00 +29°C° 0 mm 2 mps 760 mmHg 40%
    13:00 +29°C° 0 mm 2 mps 760 mmHg 39%
    14:00 +30°C° 0 mm 2 mps 759 mmHg 38%
    15:00 +30°C° 0 mm 1 mps 759 mmHg 37%
    16:00 +28°C° 0 mm 1 mps 759 mmHg 41%
    17:00 +26°C° 0 mm 1 mps 759 mmHg 46%
    18:00 +24°C° 0 mm 1 mps 759 mmHg 51%
    19:00 +23°C° 0 mm 1 mps 760 mmHg 52%
    20:00 +22°C° 0 mm 1 mps 761 mmHg 54%
    21:00 +22°C° 0 mm 1 mps 761 mmHg 56%
    22:00 +21°C° 0 mm 1 mps 761 mmHg 58%
    23:00 +21°C° 0 mm 1 mps 761 mmHg 59%

    20 November, Tuesday

    Time Temperature Precipitation Wind Pressure Humidity
    00:00 +20°C° 0 mm 1 mps 761 mmHg 61%
    01:00 +20°C° 0 mm 1 mps 760 mmHg 63%
    02:00 +18°C° 0 mm 2 mps 760 mmHg 65%
    03:00 +18°C° 0 mm 2 mps 760 mmHg 67%
    04:00 +17°C° 0 mm 2 mps 760 mmHg 69%
    05:00 +17°C° 0 mm 2 mps 760 mmHg 71%
    06:00 +16°C° 0 mm 2 mps 760 mmHg 73%
    07:00 +18°C° 0 mm 2 mps 761 mmHg 67%
    08:00 +21°C° 0 mm 2 mps 761 mmHg 62%
    09:00 +24°C° 0 mm 2 mps 762 mmHg 56%
    10:00 +25°C° 0 mm 1 mps 761 mmHg 51%
    11:00 +27°C° 0 mm 1 mps 761 mmHg 46%
    12:00 +29°C° 0 mm 1 mps 760 mmHg 41%
    13:00 +29°C° 0 mm 1 mps 759 mmHg 41%
    14:00 +29°C° 0 mm 2 mps 759 mmHg 40%
    15:00 +29°C° 0 mm 2 mps 758 mmHg 39%
    16:00 +27°C° 0 mm 2 mps 758 mmHg 44%
    17:00 +25°C° 0 mm 1 mps 758 mmHg 49%
    18:00 +23°C° 0 mm 1 mps 759 mmHg 54%
    19:00 +23°C° 0 mm 1 mps 759 mmHg 56%
    20:00 +22°C° 0 mm 1 mps 760 mmHg 58%
    21:00 +21°C° 0 mm 1 mps 761 mmHg 60%
    22:00 +21°C° 0 mm 1 mps 761 mmHg 62%
    23:00 +20°C° 0 mm 1 mps 761 mmHg 65%

    21 November, Wednesday

    Time Temperature Precipitation Wind Pressure Humidity
    00:00 +20°C° 0 mm 1 mps 761 mmHg 67%
    01:00 +19°C° 0 mm 1 mps 760 mmHg 69%
    02:00 +19°C° 0 mm 1 mps 760 mmHg 71%
    03:00 +18°C° 0 mm 1 mps 760 mmHg 73%
    04:00 +18°C° 0 mm 1 mps 760 mmHg 75%
    05:00 +17°C° 0 mm 2 mps 760 mmHg 77%
    06:00 +16°C° 0 mm 2 mps 761 mmHg 79%
    07:00 +18°C° 0 mm 2 mps 761 mmHg 72%
    08:00 +20°C° 0 mm 2 mps 762 mmHg 66%
    09:00 +23°C° 0 mm 2 mps 762 mmHg 60%
    10:00 +25°C° 0 mm 2 mps 761 mmHg 54%
    11:00 +27°C° 0 mm 1 mps 761 mmHg 48%
    12:00 +28°C° 0 mm 1 mps 760 mmHg 42%
    13:00 +29°C° 0 mm 1 mps 759 mmHg 41%
    14:00 +29°C° 0 mm 1 mps 759 mmHg 41%
    15:00 +29°C° 0 mm 1 mps 758 mmHg 40%
    16:00 +27°C° 0 mm 1 mps 758 mmHg 45%
    17:00 +25°C° 0 mm 1 mps 759 mmHg 51%
    18:00 +23°C° 0 mm 1 mps 759 mmHg 56%
    19:00 +22°C° 0 mm 1 mps 760 mmHg 58%
    20:00 +21°C° 0 mm 1 mps 760 mmHg 60%
    21:00 +21°C° 0 mm 1 mps 761 mmHg 63%
    22:00 +20°C° 0 mm 1 mps 760 mmHg 65%
    23:00 +20°C° 0 mm 1 mps 760 mmHg 67%

    22 November, Thursday

    Time Temperature Precipitation Wind Pressure Humidity
    00:00 +19°C° 0 mm 1 mps 760 mmHg 70%
    01:00 +19°C° 0 mm 1 mps 760 mmHg 72%
    02:00 +18°C° 0 mm 1 mps 759 mmHg 74%
    03:00 +18°C° 0 mm 1 mps 759 mmHg 76%
    04:00 +16°C° 0 mm 1 mps 759 mmHg 77%
    05:00 +16°C° 0 mm 1 mps 760 mmHg 79%
    06:00 +16°C° 0 mm 1 mps 760 mmHg 80%
    07:00 +19°C° 0 mm 1 mps 760 mmHg 73%
    08:00 +20°C° 0 mm 2 mps 761 mmHg 66%
    09:00 +23°C° 0 mm 2 mps 761 mmHg 59%
    10:00 +25°C° 0 mm 2 mps 760 mmHg 53%
    11:00 +26°C° 0 mm 2 mps 760 mmHg 48%
    12:00 +28°C° 0 mm 2 mps 759 mmHg 42%
    13:00 +28°C° 0 mm 1 mps 758 mmHg 41%
    14:00 +29°C° 0 mm 1 mps 758 mmHg 39%
    15:00 +29°C° 0 mm 1 mps 757 mmHg 38%
    16:00 +27°C° 0 mm 1 mps 757 mmHg 44%
    17:00 +23°C° 0 mm 0 mps 758 mmHg 49%
    18:00 +21°C° 0 mm 0 mps 758 mmHg 54%
    19:00 +22°C° 0 mm 1 mps 759 mmHg 56%
    20:00 +21°C° 0 mm 1 mps 759 mmHg 58%
    21:00 +21°C° 0 mm 1 mps 760 mmHg 60%
    22:00 +20°C° 0 mm 1 mps 760 mmHg 63%
    23:00 +20°C° 0 mm 1 mps 759 mmHg 65%
    Show more